Time,TemperatureF,DewpointF,PressureIn,WindDirection,WindDirectionDegrees,WindSpeedMPH,WindSpeedGustMPH,Humidity,HourlyPrecipIn,Conditions,Clouds,dailyrainin,SolarRadiationWatts/m^2,SoftwareType,DateUTC
2013-11-25 00:05:00,45.9,40.4,30.24,WSW,238,0.0,0.0,81,0.00,,,0.00,0,Wunderground v.1.15,2013-11-25 08:05:00,
2013-11-25 00:11:00,45.8,40.3,30.24,WSW,237,0.0,0.0,81,0.00,,,0.00,0,Wunderground v.1.15,2013-11-25 08:11:00,
2013-11-25 00:17:00,45.6,40.4,30.23,WSW,237,0.0,0.0,82,0.00,,,0.00,0,Wunderground v.1.15,2013-11-25 08:17:00,
2013-11-25 00:23:00,45.2,40.0,30.24,WSW,238,0.0,0.0,82,0.00,,,0.00,0,Wunderground v.1.15,2013-11-25 08:23:00,
2013-11-25 00:28:00,45.2,40.0,30.24,WSW,238,0.0,0.0,82,0.00,,,0.00,0,Wunderground v.1.15,2013-11-25 08:28:00,
2013-11-25 00:33:00,45.0,39.8,30.23,WSW,237,0.0,0.0,82,0.00,,,0.00,0,Wunderground v.1.15,2013-11-25 08:33:00,
2013-11-25 00:39:00,45.0,39.8,30.23,WSW,238,0.0,0.0,82,0.00,,,0.00,0,Wunderground v.1.15,2013-11-25 08:39:00,
2013-11-25 00:44:00,45.0,39.8,30.23,WSW,238,0.0,0.0,82,0.00,,,0.00,0,Wunderground v.1.15,2013-11-25 08:44:00,
2013-11-25 00:49:00,45.0,39.8,30.24,WSW,237,0.0,0.0,82,0.00,,,0.00,0,Wunderground v.1.15,2013-11-25 08:49:00,
2013-11-25 00:54:00,44.9,39.7,30.24,WSW,238,0.0,0.0,82,0.00,,,0.00,0,Wunderground v.1.15,2013-11-25 08:54:00,
2013-11-25 01:00:00,44.8,39.6,30.24,WSW,238,0.0,0.0,82,0.00,,,0.00,0,Wunderground v.1.15,2013-11-25 09:00:00,
2013-11-25 01:05:00,45.0,39.8,30.24,WSW,238,0.0,0.0,82,0.00,,,0.00,0,Wunderground v.1.15,2013-11-25 09:05:00,
2013-11-25 01:11:00,44.7,39.5,30.24,WSW,238,0.0,0.0,82,0.00,,,0.00,0,Wunderground v.1.15,2013-11-25 09:11:00,
2013-11-25 01:16:00,44.7,39.5,30.24,WSW,238,0.0,0.0,82,0.00,,,0.00,0,Wunderground v.1.15,2013-11-25 09:16:00,
2013-11-25 01:22:00,44.5,39.3,30.24,WSW,238,0.0,0.0,82,0.00,,,0.00,0,Wunderground v.1.15,2013-11-25 09:22:00,
2013-11-25 01:27:00,44.4,39.2,30.24,WSW,238,0.0,0.0,82,0.00,,,0.00,0,Wunderground v.1.15,2013-11-25 09:27:00,
2013-11-25 01:33:00,44.5,39.3,30.24,WSW,238,0.0,0.0,82,0.00,,,0.00,0,Wunderground v.1.15,2013-11-25 09:33:00,
2013-11-25 01:38:00,44.3,39.2,30.24,WSW,238,0.0,2.0,82,0.00,,,0.00,0,Wunderground v.1.15,2013-11-25 09:38:00,
2013-11-25 01:43:00,44.2,39.1,30.24,WSW,237,0.0,0.0,82,0.00,,,0.00,0,Wunderground v.1.15,2013-11-25 09:43:00,
2013-11-25 01:48:00,43.9,38.8,30.24,WSW,238,0.0,0.0,82,0.00,,,0.00,0,Wunderground v.1.15,2013-11-25 09:48:00,
2013-11-25 01:53:00,43.8,38.7,30.24,WSW,237,0.0,0.0,82,0.00,,,0.00,0,Wunderground v.1.15,2013-11-25 09:53:00,
2013-11-25 01:59:00,43.9,38.8,30.25,WSW,238,0.0,0.0,82,0.00,,,0.00,0,Wunderground v.1.15,2013-11-25 09:59:00,
2013-11-25 02:04:00,43.8,38.7,30.24,WSW,237,0.0,0.0,82,0.00,,,0.00,0,Wunderground v.1.15,2013-11-25 10:04:00,
2013-11-25 02:09:00,43.8,38.7,30.24,WSW,238,0.0,0.0,82,0.00,,,0.00,0,Wunderground v.1.15,2013-11-25 10:09:00,
2013-11-25 02:14:00,43.9,38.8,30.24,WSW,238,0.0,0.0,82,0.00,,,0.00,0,Wunderground v.1.15,2013-11-25 10:14:00,
2013-11-25 02:19:00,43.8,38.7,30.24,WSW,238,0.0,0.0,82,0.00,,,0.00,0,Wunderground v.1.15,2013-11-25 10:19:00,
2013-11-25 02:24:00,43.7,38.6,30.24,WSW,238,0.0,0.0,82,0.00,,,0.00,0,Wunderground v.1.15,2013-11-25 10:24:00,
2013-11-25 02:29:00,43.6,38.5,30.24,WSW,238,0.0,0.0,82,0.00,,,0.00,0,Wunderground v.1.15,2013-11-25 10:29:00,
2013-11-25 02:34:00,43.4,38.3,30.24,WSW,237,0.0,0.0,82,0.00,,,0.00,0,Wunderground v.1.15,2013-11-25 10:34:00,
2013-11-25 02:39:00,43.4,38.3,30.24,WSW,237,0.0,0.0,82,0.00,,,0.00,0,Wunderground v.1.15,2013-11-25 10:39:00,
2013-11-25 02:44:00,43.2,38.1,30.24,WSW,237,0.0,0.0,82,0.00,,,0.00,0,Wunderground v.1.15,2013-11-25 10:44:00,
2013-11-25 02:50:00,43.0,37.9,30.24,WSW,237,0.0,0.0,82,0.00,,,0.00,0,Wunderground v.1.15,2013-11-25 10:50:00,
2013-11-25 02:55:00,42.9,37.8,30.24,WSW,237,0.0,0.0,82,0.00,,,0.00,0,Wunderground v.1.15,2013-11-25 10:55:00,
2013-11-25 03:00:00,42.7,37.6,30.24,WSW,237,0.0,0.0,82,0.00,,,0.00,0,Wunderground v.1.15,2013-11-25 11:00:00,
2013-11-25 03:05:00,42.7,37.6,30.24,WSW,238,0.0,0.0,82,0.00,,,0.00,0,Wunderground v.1.15,2013-11-25 11:05:00,
2013-11-25 03:10:00,42.6,37.5,30.24,WSW,238,0.0,0.0,82,0.00,,,0.00,0,Wunderground v.1.15,2013-11-25 11:10:00,
2013-11-25 03:15:00,42.5,37.4,30.24,WSW,238,0.0,0.0,82,0.00,,,0.00,0,Wunderground v.1.15,2013-11-25 11:15:00,
2013-11-25 03:20:00,42.4,37.3,30.24,WSW,238,0.0,0.0,82,0.00,,,0.00,0,Wunderground v.1.15,2013-11-25 11:20:00,
2013-11-25 03:25:00,42.4,37.3,30.24,WSW,238,0.0,0.0,82,0.00,,,0.00,0,Wunderground v.1.15,2013-11-25 11:25:00,
2013-11-25 03:30:00,42.5,37.4,30.24,WSW,238,0.0,0.0,82,0.00,,,0.00,0,Wunderground v.1.15,2013-11-25 11:30:00,
2013-11-25 03:35:00,42.4,37.3,30.24,WSW,237,0.0,0.0,82,0.00,,,0.00,0,Wunderground v.1.15,2013-11-25 11:35:00,
2013-11-25 03:40:00,42.4,37.3,30.24,WSW,238,0.0,0.0,82,0.00,,,0.00,0,Wunderground v.1.15,2013-11-25 11:40:00,
2013-11-25 03:45:00,42.4,37.3,30.24,WSW,238,0.0,0.0,82,0.00,,,0.00,0,Wunderground v.1.15,2013-11-25 11:45:00,
2013-11-25 03:50:00,42.4,37.3,30.24,WSW,238,0.0,0.0,82,0.00,,,0.00,0,Wunderground v.1.15,2013-11-25 11:50:00,
2013-11-25 03:55:00,42.3,37.2,30.24,WSW,238,0.0,0.0,82,0.00,,,0.00,0,Wunderground v.1.15,2013-11-25 11:55:00,
2013-11-25 04:00:00,42.3,37.5,30.24,WSW,238,0.0,0.0,83,0.00,,,0.00,0,Wunderground v.1.15,2013-11-25 12:00:00,
2013-11-25 04:05:00,42.2,37.4,30.24,WSW,238,0.0,0.0,83,0.00,,,0.00,0,Wunderground v.1.15,2013-11-25 12:05:00,
2013-11-25 04:10:00,42.3,37.5,30.24,WSW,238,0.0,0.0,83,0.00,,,0.00,0,Wunderground v.1.15,2013-11-25 12:10:00,
2013-11-25 04:15:00,42.3,37.5,30.24,WSW,237,0.0,0.0,83,0.00,,,0.00,0,Wunderground v.1.15,2013-11-25 12:15:00,
2013-11-25 04:20:00,42.2,37.1,30.24,WSW,238,0.0,0.0,82,0.00,,,0.00,0,Wunderground v.1.15,2013-11-25 12:20:00,
2013-11-25 04:25:00,42.0,36.9,30.24,WSW,237,0.0,0.0,82,0.00,,,0.00,0,Wunderground v.1.15,2013-11-25 12:25:00,
2013-11-25 04:30:00,41.8,36.7,30.25,WSW,238,0.0,0.0,82,0.00,,,0.00,0,Wunderground v.1.15,2013-11-25 12:30:00,
2013-11-25 04:35:00,41.8,36.7,30.25,WSW,237,0.0,0.0,82,0.00,,,0.00,0,Wunderground v.1.15,2013-11-25 12:35:00,
2013-11-25 04:40:00,41.6,36.8,30.25,WSW,238,0.0,0.0,83,0.00,,,0.00,0,Wunderground v.1.15,2013-11-25 12:40:00,
2013-11-25 04:45:00,41.5,36.7,30.25,WSW,237,0.0,0.0,83,0.00,,,0.00,0,Wunderground v.1.15,2013-11-25 12:45:00,
2013-11-25 04:50:00,41.3,36.5,30.25,WSW,238,0.0,0.0,83,0.00,,,0.00,0,Wunderground v.1.15,2013-11-25 12:50:00,
2013-11-25 04:55:00,41.3,36.5,30.25,WSW,238,0.0,0.0,83,0.00,,,0.00,0,Wunderground v.1.15,2013-11-25 12:55:00,
2013-11-25 05:00:00,41.1,36.3,30.24,WSW,237,0.0,0.0,83,0.00,,,0.00,0,Wunderground v.1.15,2013-11-25 13:00:00,
2013-11-25 05:05:00,41.0,36.2,30.24,WSW,237,0.0,0.0,83,0.00,,,0.00,0,Wunderground v.1.15,2013-11-25 13:05:00,
2013-11-25 05:10:00,41.1,36.3,30.24,WSW,238,0.0,0.0,83,0.00,,,0.00,0,Wunderground v.1.15,2013-11-25 13:10:00,
2013-11-25 05:15:00,41.0,36.2,30.24,WSW,238,0.0,0.0,83,0.00,,,0.00,0,Wunderground v.1.15,2013-11-25 13:15:00,
2013-11-25 05:20:00,40.9,36.1,30.24,WSW,238,0.0,0.0,83,0.00,,,0.00,0,Wunderground v.1.15,2013-11-25 13:20:00,
2013-11-25 05:25:00,41.0,36.2,30.24,WSW,238,0.0,0.0,83,0.00,,,0.00,0,Wunderground v.1.15,2013-11-25 13:25:00,
2013-11-25 05:30:00,41.0,36.2,30.24,WSW,238,0.0,0.0,83,0.00,,,0.00,0,Wunderground v.1.15,2013-11-25 13:30:00,
2013-11-25 05:35:00,40.9,36.1,30.24,WSW,238,0.0,0.0,83,0.00,,,0.00,0,Wunderground v.1.15,2013-11-25 13:35:00,
2013-11-25 05:40:00,40.6,35.8,30.24,WSW,237,0.0,0.0,83,0.00,,,0.00,0,Wunderground v.1.15,2013-11-25 13:40:00,
2013-11-25 05:45:00,40.7,35.9,30.24,WSW,238,0.0,0.0,83,0.00,,,0.00,0,Wunderground v.1.15,2013-11-25 13:45:00,
2013-11-25 05:50:00,40.6,35.8,30.24,WSW,238,0.0,0.0,83,0.00,,,0.00,0,Wunderground v.1.15,2013-11-25 13:50:00,
2013-11-25 05:56:00,40.5,35.7,30.24,WSW,238,0.0,0.0,83,0.00,,,0.00,0,Wunderground v.1.15,2013-11-25 13:56:00,
2013-11-25 06:01:00,40.4,35.6,30.24,WSW,238,0.0,0.0,83,0.00,,,0.00,0,Wunderground v.1.15,2013-11-25 14:01:00,
2013-11-25 06:06:00,40.3,35.5,30.24,WSW,238,0.0,0.0,83,0.00,,,0.00,0,Wunderground v.1.15,2013-11-25 14:06:00,
2013-11-25 06:11:00,40.4,35.6,30.24,WSW,238,0.0,0.0,83,0.00,,,0.00,0,Wunderground v.1.15,2013-11-25 14:11:00,
2013-11-25 06:16:00,40.4,35.6,30.25,WSW,238,0.0,0.0,83,0.00,,,0.00,0,Wunderground v.1.15,2013-11-25 14:16:00,
2013-11-25 06:21:00,40.5,35.7,30.25,WSW,237,0.0,0.0,83,0.00,,,0.00,0,Wunderground v.1.15,2013-11-25 14:21:00,
2013-11-25 06:26:00,40.5,35.7,30.25,WSW,237,0.0,0.0,83,0.00,,,0.00,0,Wunderground v.1.15,2013-11-25 14:26:00,
2013-11-25 06:31:00,40.4,35.6,30.25,WSW,238,0.0,0.0,83,0.00,,,0.00,0,Wunderground v.1.15,2013-11-25 14:31:00,
2013-11-25 06:36:00,40.3,35.5,30.25,WSW,237,0.0,0.0,83,0.00,,,0.00,5,Wunderground v.1.15,2013-11-25 14:36:00,
2013-11-25 06:41:00,40.4,35.6,30.25,WSW,237,0.0,0.0,83,0.00,,,0.00,7,Wunderground v.1.15,2013-11-25 14:41:00,
2013-11-25 06:46:00,40.5,35.7,30.26,WSW,238,0.0,0.0,83,0.00,,,0.00,9,Wunderground v.1.15,2013-11-25 14:46:00,
2013-11-25 06:51:00,40.7,35.9,30.25,WSW,237,0.0,0.0,83,0.00,,,0.00,11,Wunderground v.1.15,2013-11-25 14:51:00,
2013-11-25 06:56:00,41.1,36.3,30.26,WSW,238,0.0,0.0,83,0.00,,,0.00,12,Wunderground v.1.15,2013-11-25 14:56:00,
2013-11-25 07:01:00,41.4,36.6,30.26,WSW,237,0.0,0.0,83,0.00,,,0.00,14,Wunderground v.1.15,2013-11-25 15:01:00,
2013-11-25 07:06:00,42.0,37.2,30.25,WSW,238,0.0,0.0,83,0.00,,,0.00,16,Wunderground v.1.15,2013-11-25 15:06:00,
2013-11-25 07:11:00,42.4,37.6,30.26,WSW,237,0.0,0.0,83,0.00,,,0.00,18,Wunderground v.1.15,2013-11-25 15:11:00,
2013-11-25 07:16:00,42.7,37.9,30.26,WSW,238,0.0,0.0,83,0.00,,,0.00,35,Wunderground v.1.15,2013-11-25 15:16:00,
2013-11-25 07:21:00,43.0,38.2,30.26,WSW,237,0.0,0.0,83,0.00,,,0.00,23,Wunderground v.1.15,2013-11-25 15:21:00,
2013-11-25 07:26:00,43.2,38.4,30.26,WSW,237,0.0,0.0,83,0.00,,,0.00,93,Wunderground v.1.15,2013-11-25 15:26:00,
2013-11-25 07:31:00,43.7,38.9,30.26,WSW,238,0.0,0.0,83,0.00,,,0.00,105,Wunderground v.1.15,2013-11-25 15:31:00,
2013-11-25 07:36:00,44.3,39.5,30.27,WSW,238,0.0,5.0,83,0.00,,,0.00,121,Wunderground v.1.15,2013-11-25 15:36:00,
2013-11-25 07:41:00,44.6,39.8,30.27,WSW,237,4.0,5.0,83,0.00,,,0.00,137,Wunderground v.1.15,2013-11-25 15:41:00,
2013-11-25 07:46:00,45.0,40.1,30.27,WSW,237,0.0,6.0,83,0.00,,,0.00,151,Wunderground v.1.15,2013-11-25 15:46:00,
2013-11-25 07:51:00,45.4,40.5,30.27,WSW,238,0.0,1.0,83,0.00,,,0.00,160,Wunderground v.1.15,2013-11-25 15:51:00,
2013-11-25 07:56:00,46.0,41.1,30.27,WSW,238,0.0,1.0,83,0.00,,,0.00,165,Wunderground v.1.15,2013-11-25 15:56:00,
2013-11-25 08:01:00,46.7,41.8,30.27,WSW,238,0.0,0.0,83,0.00,,,0.00,178,Wunderground v.1.15,2013-11-25 16:01:00,
2013-11-25 08:06:00,47.5,42.3,30.27,WSW,238,0.0,0.0,82,0.00,,,0.00,197,Wunderground v.1.15,2013-11-25 16:06:00,
2013-11-25 08:11:00,48.4,43.2,30.27,WSW,238,0.0,0.0,82,0.00,,,0.00,211,Wunderground v.1.15,2013-11-25 16:11:00,
2013-11-25 08:16:00,48.7,43.1,30.27,WSW,237,0.0,0.0,81,0.00,,,0.00,185,Wunderground v.1.15,2013-11-25 16:16:00,
2013-11-25 08:21:00,49.2,43.3,30.27,WSW,238,0.0,4.0,80,0.00,,,0.00,246,Wunderground v.1.15,2013-11-25 16:21:00,
2013-11-25 08:26:00,50.0,43.7,30.27,WSW,238,0.0,4.0,79,0.00,,,0.00,267,Wunderground v.1.15,2013-11-25 16:26:00,
2013-11-25 08:31:00,51.0,44.4,30.27,WSW,238,0.0,1.0,78,0.00,,,0.00,269,Wunderground v.1.15,2013-11-25 16:31:00,
2013-11-25 08:36:00,52.1,44.8,30.27,WSW,238,0.0,4.0,76,0.00,,,0.00,292,Wunderground v.1.15,2013-11-25 16:36:00,
2013-11-25 08:42:00,53.0,44.6,30.28,WSW,237,0.0,0.0,73,0.00,,,0.00,292,Wunderground v.1.15,2013-11-25 16:42:00,
2013-11-25 08:47:00,53.9,43.6,30.28,WSW,238,0.0,0.0,68,0.00,,,0.00,313,Wunderground v.1.15,2013-11-25 16:47:00,
2013-11-25 08:52:00,54.7,44.3,30.28,WSW,238,5.0,5.0,68,0.00,,,0.00,336,Wunderground v.1.15,2013-11-25 16:52:00,
2013-11-25 08:57:00,54.5,44.5,30.28,WSW,237,0.0,5.0,69,0.00,,,0.00,348,Wunderground v.1.15,2013-11-25 16:57:00,
2013-11-25 09:02:00,54.6,44.2,30.28,WSW,238,1.0,4.0,68,0.00,,,0.00,360,Wunderground v.1.15,2013-11-25 17:02:00,
2013-11-25 09:07:00,55.3,43.7,30.28,WSW,238,0.0,4.0,65,0.00,,,0.00,373,Wunderground v.1.15,2013-11-25 17:07:00,
2013-11-25 09:12:00,55.9,44.3,30.28,WSW,238,0.0,2.0,65,0.00,,,0.00,385,Wunderground v.1.15,2013-11-25 17:12:00,
2013-11-25 09:17:00,56.2,43.3,30.28,WSW,238,0.0,2.0,62,0.00,,,0.00,397,Wunderground v.1.15,2013-11-25 17:17:00,
2013-11-25 09:22:00,56.9,43.2,30.28,WSW,238,1.0,1.0,60,0.00,,,0.00,408,Wunderground v.1.15,2013-11-25 17:22:00,
2013-11-25 09:27:00,57.5,43.3,30.28,WSW,237,0.0,3.0,59,0.00,,,0.00,418,Wunderground v.1.15,2013-11-25 17:27:00,
2013-11-25 09:32:00,58.2,43.0,30.28,WSW,237,0.0,0.0,57,0.00,,,0.00,427,Wunderground v.1.15,2013-11-25 17:32:00,
2013-11-25 09:37:00,59.0,43.3,30.28,WSW,238,0.0,0.0,56,0.00,,,0.00,439,Wunderground v.1.15,2013-11-25 17:37:00,
2013-11-25 09:42:00,59.3,42.6,30.28,WSW,237,0.0,0.0,54,0.00,,,0.00,450,Wunderground v.1.15,2013-11-25 17:42:00,
2013-11-25 09:47:00,59.6,41.9,30.28,WSW,237,0.0,0.0,52,0.00,,,0.00,457,Wunderground v.1.15,2013-11-25 17:47:00,
2013-11-25 09:52:00,60.2,42.5,30.28,WSW,237,0.0,0.0,52,0.00,,,0.00,466,Wunderground v.1.15,2013-11-25 17:52:00,
2013-11-25 09:58:00,60.9,42.6,30.28,WSW,238,0.0,5.0,51,0.00,,,0.00,475,Wunderground v.1.15,2013-11-25 17:58:00,
2013-11-25 10:03:00,61.2,42.9,30.28,WSW,238,0.0,3.0,51,0.00,,,0.00,483,Wunderground v.1.15,2013-11-25 18:03:00,
2013-11-25 10:08:00,61.8,43.5,30.28,WSW,237,0.0,3.0,51,0.00,,,0.00,490,Wunderground v.1.15,2013-11-25 18:08:00,
2013-11-25 10:14:00,61.8,43.5,30.28,WSW,238,0.0,3.0,51,0.00,,,0.00,499,Wunderground v.1.15,2013-11-25 18:14:00,
2013-11-25 10:19:00,61.9,43.6,30.28,WSW,237,0.0,3.0,51,0.00,,,0.00,506,Wunderground v.1.15,2013-11-25 18:19:00,
2013-11-25 10:24:00,62.7,44.8,30.27,WSW,238,0.0,0.0,52,0.00,,,0.00,513,Wunderground v.1.15,2013-11-25 18:24:00,
2013-11-25 10:29:00,63.0,43.5,30.27,WSW,238,0.0,3.0,49,0.00,,,0.00,519,Wunderground v.1.15,2013-11-25 18:29:00,
2013-11-25 10:34:00,63.2,44.2,30.27,WSW,237,0.0,0.0,50,0.00,,,0.00,524,Wunderground v.1.15,2013-11-25 18:34:00,
2013-11-25 10:39:00,64.0,41.6,30.27,WSW,238,0.0,0.0,44,0.00,,,0.00,531,Wunderground v.1.15,2013-11-25 18:39:00,
2013-11-25 10:44:00,64.5,42.7,30.27,WSW,237,0.0,0.0,45,0.00,,,0.00,536,Wunderground v.1.15,2013-11-25 18:44:00,
2013-11-25 10:49:00,64.8,41.8,30.27,WSW,238,0.0,0.0,43,0.00,,,0.00,540,Wunderground v.1.15,2013-11-25 18:49:00,
2013-11-25 10:54:00,65.5,43.0,30.27,WSW,238,0.0,0.0,44,0.00,,,0.00,541,Wunderground v.1.15,2013-11-25 18:54:00,
2013-11-25 10:59:00,65.4,42.3,30.26,WSW,238,2.0,2.0,43,0.00,,,0.00,547,Wunderground v.1.15,2013-11-25 18:59:00,
2013-11-25 11:04:00,65.6,41.9,30.26,WSW,238,0.0,3.0,42,0.00,,,0.00,550,Wunderground v.1.15,2013-11-25 19:04:00,
2013-11-25 11:09:00,65.7,42.0,30.26,WSW,238,0.0,4.0,42,0.00,,,0.00,554,Wunderground v.1.15,2013-11-25 19:09:00,
2013-11-25 11:14:00,66.5,42.1,30.26,WSW,238,3.0,4.0,41,0.00,,,0.00,554,Wunderground v.1.15,2013-11-25 19:14:00,
2013-11-25 11:20:00,66.5,42.1,30.25,WSW,237,0.0,4.0,41,0.00,,,0.00,555,Wunderground v.1.15,2013-11-25 19:20:00,
2013-11-25 11:25:00,67.4,42.9,30.25,WSW,238,2.0,2.0,41,0.00,,,0.00,555,Wunderground v.1.15,2013-11-25 19:25:00,
2013-11-25 11:30:00,67.8,42.6,30.25,SW,234,0.0,6.0,40,0.00,,,0.00,555,Wunderground v.1.15,2013-11-25 19:30:00,
2013-11-25 11:35:00,68.1,42.2,30.25,SW,232,4.0,6.0,39,0.00,,,0.00,559,Wunderground v.1.15,2013-11-25 19:35:00,
2013-11-25 11:40:00,68.3,42.4,30.24,SW,235,6.0,6.0,39,0.00,,,0.00,555,Wunderground v.1.15,2013-11-25 19:40:00,
2013-11-25 11:45:00,68.5,41.9,30.24,WSW,242,3.0,7.0,38,0.00,,,0.00,555,Wunderground v.1.15,2013-11-25 19:45:00,
2013-11-25 11:50:00,68.8,42.1,30.24,WSW,246,3.0,3.0,38,0.00,,,0.00,555,Wunderground v.1.15,2013-11-25 19:50:00,
2013-11-25 11:55:00,69.2,42.5,30.23,West,269,0.0,10.0,38,0.00,,,0.00,555,Wunderground v.1.15,2013-11-25 19:55:00,
2013-11-25 12:00:00,69.7,43.6,30.23,West,265,5.0,5.0,39,0.00,,,0.00,552,Wunderground v.1.15,2013-11-25 20:00:00,
2013-11-25 12:05:00,69.9,42.4,30.23,West,267,4.0,6.0,37,0.00,,,0.00,550,Wunderground v.1.15,2013-11-25 20:05:00,
2013-11-25 12:10:00,70.2,42.7,30.23,West,267,0.0,2.0,37,0.00,,,0.00,548,Wunderground v.1.15,2013-11-25 20:10:00,
2013-11-25 12:15:00,71.0,42.7,30.22,West,272,3.0,7.0,36,0.00,,,0.00,547,Wunderground v.1.15,2013-11-25 20:15:00,
2013-11-25 12:20:00,71.2,42.1,30.22,West,272,0.0,2.0,35,0.00,,,0.00,541,Wunderground v.1.15,2013-11-25 20:20:00,
2013-11-25 12:25:00,71.5,43.1,30.22,WNW,286,6.0,10.0,36,0.00,,,0.00,538,Wunderground v.1.15,2013-11-25 20:25:00,
2013-11-25 12:30:00,70.9,41.9,30.22,West,279,0.0,2.0,35,0.00,,,0.00,533,Wunderground v.1.15,2013-11-25 20:30:00,
2013-11-25 12:35:00,70.8,41.8,30.21,West,279,0.0,5.0,35,0.00,,,0.00,527,Wunderground v.1.15,2013-11-25 20:35:00,
2013-11-25 12:40:00,71.0,41.2,30.21,West,279,0.0,3.0,34,0.00,,,0.00,522,Wunderground v.1.15,2013-11-25 20:40:00,
2013-11-25 12:45:00,70.7,41.7,30.21,West,272,0.0,9.0,35,0.00,,,0.00,515,Wunderground v.1.15,2013-11-25 20:45:00,
2013-11-25 12:50:00,71.4,43.0,30.21,West,272,6.0,6.0,36,0.00,,,0.00,504,Wunderground v.1.15,2013-11-25 20:50:00,
2013-11-25 12:55:00,71.5,42.4,30.20,West,268,0.0,8.0,35,0.00,,,0.00,499,Wunderground v.1.15,2013-11-25 20:55:00,
2013-11-25 13:00:00,72.3,43.8,30.20,West,271,5.0,6.0,36,0.00,,,0.00,494,Wunderground v.1.15,2013-11-25 21:00:00,
2013-11-25 13:05:00,72.4,43.2,30.20,West,270,3.0,7.0,35,0.00,,,0.00,489,Wunderground v.1.15,2013-11-25 21:05:00,
2013-11-25 13:10:00,71.7,42.6,30.20,West,263,4.0,4.0,35,0.00,,,0.00,482,Wunderground v.1.15,2013-11-25 21:10:00,
2013-11-25 13:15:00,71.9,43.5,30.20,West,263,3.0,5.0,36,0.00,,,0.00,475,Wunderground v.1.15,2013-11-25 21:15:00,
2013-11-25 13:20:00,71.9,43.5,30.20,West,261,5.0,7.0,36,0.00,,,0.00,464,Wunderground v.1.15,2013-11-25 21:20:00,
2013-11-25 13:25:00,71.6,43.2,30.20,West,261,5.0,7.0,36,0.00,,,0.00,457,Wunderground v.1.15,2013-11-25 21:25:00,
2013-11-25 13:30:00,71.7,42.6,30.20,West,259,4.0,4.0,35,0.00,,,0.00,448,Wunderground v.1.15,2013-11-25 21:30:00,
2013-11-25 13:35:00,71.7,42.6,30.20,WSW,252,4.0,8.0,35,0.00,,,0.00,439,Wunderground v.1.15,2013-11-25 21:35:00,
2013-11-25 13:40:00,71.6,42.5,30.19,WSW,252,5.0,6.0,35,0.00,,,0.00,431,Wunderground v.1.15,2013-11-25 21:40:00,
2013-11-25 13:45:00,71.6,41.7,30.19,SW,234,10.0,10.0,34,0.00,,,0.00,420,Wunderground v.1.15,2013-11-25 21:45:00,
2013-11-25 13:51:00,71.7,41.8,30.19,WSW,240,4.0,6.0,34,0.00,,,0.00,410,Wunderground v.1.15,2013-11-25 21:51:00,
2013-11-25 13:56:00,71.5,42.4,30.19,SW,218,4.0,9.0,35,0.00,,,0.00,397,Wunderground v.1.15,2013-11-25 21:56:00,
2013-11-25 14:01:00,71.4,41.6,30.19,SW,219,0.0,4.0,34,0.00,,,0.00,387,Wunderground v.1.15,2013-11-25 22:01:00,
2013-11-25 14:06:00,71.8,41.9,30.19,SW,227,3.0,7.0,34,0.00,,,0.00,378,Wunderground v.1.15,2013-11-25 22:06:00,
2013-11-25 14:11:00,72.2,40.7,30.19,SW,226,1.0,3.0,32,0.00,,,0.00,367,Wunderground v.1.15,2013-11-25 22:11:00,
2013-11-25 14:16:00,72.1,40.6,30.18,SW,230,2.0,4.0,32,0.00,,,0.00,357,Wunderground v.1.15,2013-11-25 22:16:00,
2013-11-25 14:21:00,72.0,41.3,30.19,SW,232,5.0,5.0,33,0.00,,,0.00,343,Wunderground v.1.15,2013-11-25 22:21:00,
2013-11-25 14:26:00,72.1,40.6,30.19,SW,234,0.0,6.0,32,0.00,,,0.00,332,Wunderground v.1.15,2013-11-25 22:26:00,
2013-11-25 14:31:00,72.2,40.7,30.19,WSW,240,3.0,6.0,32,0.00,,,0.00,318,Wunderground v.1.15,2013-11-25 22:31:00,
2013-11-25 14:36:00,72.2,40.7,30.18,WSW,241,3.0,6.0,32,0.00,,,0.00,304,Wunderground v.1.15,2013-11-25 22:36:00,
2013-11-25 14:41:00,72.0,40.5,30.18,WSW,241,0.0,1.0,32,0.00,,,0.00,292,Wunderground v.1.15,2013-11-25 22:41:00,
2013-11-25 14:46:00,72.3,40.0,30.18,WSW,242,2.0,6.0,31,0.00,,,0.00,279,Wunderground v.1.15,2013-11-25 22:46:00,
2013-11-25 14:51:00,72.3,40.8,30.18,WSW,240,4.0,4.0,32,0.00,,,0.00,265,Wunderground v.1.15,2013-11-25 22:51:00,
2013-11-25 14:56:00,72.1,40.6,30.18,West,259,0.0,8.0,32,0.00,,,0.00,250,Wunderground v.1.15,2013-11-25 22:56:00,
2013-11-25 15:01:00,72.2,40.7,30.18,West,263,2.0,6.0,32,0.00,,,0.00,236,Wunderground v.1.15,2013-11-25 23:01:00,
2013-11-25 15:06:00,71.9,40.4,30.18,West,264,0.0,6.0,32,0.00,,,0.00,216,Wunderground v.1.15,2013-11-25 23:06:00,
2013-11-25 15:12:00,71.8,41.1,30.18,West,263,2.0,7.0,33,0.00,,,0.00,197,Wunderground v.1.15,2013-11-25 23:12:00,
2013-11-25 15:17:00,71.6,41.0,30.18,West,263,3.0,7.0,33,0.00,,,0.00,178,Wunderground v.1.15,2013-11-25 23:17:00,
2013-11-25 15:22:00,71.2,40.6,30.18,West,261,4.0,5.0,33,0.00,,,0.00,162,Wunderground v.1.15,2013-11-25 23:22:00,
2013-11-25 15:27:00,71.2,41.4,30.18,West,269,4.0,10.0,34,0.00,,,0.00,146,Wunderground v.1.15,2013-11-25 23:27:00,
2013-11-25 15:32:00,71.2,41.4,30.18,West,269,6.0,7.0,34,0.00,,,0.00,128,Wunderground v.1.15,2013-11-25 23:32:00,
2013-11-25 15:37:00,71.0,41.2,30.19,West,271,1.0,7.0,34,0.00,,,0.00,111,Wunderground v.1.15,2013-11-25 23:37:00,
2013-11-25 15:42:00,70.8,41.0,30.19,West,275,1.0,7.0,34,0.00,,,0.00,95,Wunderground v.1.15,2013-11-25 23:42:00,
2013-11-25 15:47:00,70.6,41.6,30.19,West,267,6.0,12.0,35,0.00,,,0.00,81,Wunderground v.1.15,2013-11-25 23:47:00,
2013-11-25 15:52:00,70.4,41.4,30.19,West,270,6.0,9.0,35,0.00,,,0.00,67,Wunderground v.1.15,2013-11-25 23:52:00,
2013-11-25 15:57:00,70.3,42.1,30.19,West,270,5.0,10.0,36,0.00,,,0.00,54,Wunderground v.1.15,2013-11-25 23:57:00,
2013-11-25 16:02:00,70.1,41.9,30.19,West,269,0.0,4.0,36,0.00,,,0.00,44,Wunderground v.1.15,2013-11-26 00:02:00,
2013-11-25 16:07:00,69.7,42.3,30.19,WNW,287,6.0,9.0,37,0.00,,,0.00,33,Wunderground v.1.15,2013-11-26 00:07:00,
2013-11-25 16:12:00,69.4,42.0,30.18,WNW,286,3.0,7.0,37,0.00,,,0.00,25,Wunderground v.1.15,2013-11-26 00:12:00,
2013-11-25 16:17:00,69.2,41.8,30.18,WNW,286,1.0,7.0,37,0.00,,,0.00,19,Wunderground v.1.15,2013-11-26 00:17:00,
2013-11-25 16:22:00,68.9,41.5,30.18,WNW,286,2.0,3.0,37,0.00,,,0.00,16,Wunderground v.1.15,2013-11-26 00:22:00,
2013-11-25 16:27:00,68.7,41.4,30.19,WNW,283,2.0,9.0,37,0.00,,,0.00,14,Wunderground v.1.15,2013-11-26 00:27:00,
2013-11-25 16:32:00,68.3,41.7,30.19,WNW,283,2.0,3.0,38,0.00,,,0.00,9,Wunderground v.1.15,2013-11-26 00:32:00,
2013-11-25 16:37:00,67.9,41.3,30.19,WNW,283,0.0,3.0,38,0.00,,,0.00,5,Wunderground v.1.15,2013-11-26 00:37:00,
2013-11-25 16:42:00,67.4,41.6,30.19,WNW,283,0.0,3.0,39,0.00,,,0.00,0,Wunderground v.1.15,2013-11-26 00:42:00,
2013-11-25 16:47:00,67.0,41.9,30.19,WNW,283,2.0,4.0,40,0.00,,,0.00,0,Wunderground v.1.15,2013-11-26 00:47:00,
2013-11-25 16:52:00,66.5,41.4,30.19,WNW,283,3.0,4.0,40,0.00,,,0.00,0,Wunderground v.1.15,2013-11-26 00:52:00,
2013-11-25 16:57:00,66.2,41.8,30.19,WNW,283,3.0,5.0,41,0.00,,,0.00,0,Wunderground v.1.15,2013-11-26 00:57:00,
2013-11-25 17:02:00,65.9,41.5,30.20,WNW,283,1.0,5.0,41,0.00,,,0.00,0,Wunderground v.1.15,2013-11-26 01:02:00,
2013-11-25 17:07:00,65.6,41.9,30.20,WNW,283,3.0,6.0,42,0.00,,,0.00,0,Wunderground v.1.15,2013-11-26 01:07:00,
2013-11-25 17:12:00,65.5,41.8,30.20,WNW,283,3.0,4.0,42,0.00,,,0.00,0,Wunderground v.1.15,2013-11-26 01:12:00,
2013-11-25 17:17:00,65.2,42.1,30.20,WNW,283,1.0,4.0,43,0.00,,,0.00,0,Wunderground v.1.15,2013-11-26 01:17:00,
2013-11-25 17:22:00,64.8,41.8,30.20,WNW,283,3.0,4.0,43,0.00,,,0.00,0,Wunderground v.1.15,2013-11-26 01:22:00,
2013-11-25 17:27:00,64.5,42.1,30.21,WNW,283,3.0,5.0,44,0.00,,,0.00,0,Wunderground v.1.15,2013-11-26 01:27:00,
2013-11-25 17:32:00,64.3,42.5,30.21,WNW,283,3.0,5.0,45,0.00,,,0.00,0,Wunderground v.1.15,2013-11-26 01:32:00,
2013-11-25 17:37:00,64.0,42.2,30.21,WNW,283,2.0,5.0,45,0.00,,,0.00,0,Wunderground v.1.15,2013-11-26 01:37:00,
2013-11-25 17:42:00,63.6,42.4,30.21,WNW,283,2.0,4.0,46,0.00,,,0.00,0,Wunderground v.1.15,2013-11-26 01:42:00,
2013-11-25 17:48:00,63.1,42.5,30.21,WNW,283,0.0,4.0,47,0.00,,,0.00,0,Wunderground v.1.15,2013-11-26 01:48:00,
2013-11-25 17:53:00,62.7,42.7,30.21,WNW,283,2.0,4.0,48,0.00,,,0.00,0,Wunderground v.1.15,2013-11-26 01:53:00,
2013-11-25 17:58:00,62.5,43.1,30.21,WNW,283,1.0,4.0,49,0.00,,,0.00,0,Wunderground v.1.15,2013-11-26 01:58:00,
2013-11-25 18:03:00,62.4,44.5,30.21,WNW,283,4.0,5.0,52,0.00,,,0.00,0,Wunderground v.1.15,2013-11-26 02:03:00,
2013-11-25 18:08:00,62.3,44.9,30.21,West,281,5.0,7.0,53,0.00,,,0.00,0,Wunderground v.1.15,2013-11-26 02:08:00,
2013-11-25 18:13:00,62.2,45.8,30.21,West,280,3.0,10.0,55,0.00,,,0.00,0,Wunderground v.1.15,2013-11-26 02:13:00,
2013-11-25 18:18:00,62.0,46.1,30.21,West,280,4.0,10.0,56,0.00,,,0.00,0,Wunderground v.1.15,2013-11-26 02:18:00,
2013-11-25 18:23:00,61.7,46.3,30.22,West,280,1.0,4.0,57,0.00,,,0.00,0,Wunderground v.1.15,2013-11-26 02:23:00,
2013-11-25 18:28:00,61.3,45.9,30.22,West,280,0.0,5.0,57,0.00,,,0.00,0,Wunderground v.1.15,2013-11-26 02:28:00,
2013-11-25 18:33:00,60.9,46.0,30.22,West,280,0.0,3.0,58,0.00,,,0.00,0,Wunderground v.1.15,2013-11-26 02:33:00,
2013-11-25 18:38:00,60.3,45.5,30.22,West,280,0.0,3.0,58,0.00,,,0.00,0,Wunderground v.1.15,2013-11-26 02:38:00,
2013-11-25 18:43:00,59.8,45.4,30.22,West,280,0.0,0.0,59,0.00,,,0.00,0,Wunderground v.1.15,2013-11-26 02:43:00,
2013-11-25 18:48:00,59.3,45.0,30.22,West,280,0.0,0.0,59,0.00,,,0.00,0,Wunderground v.1.15,2013-11-26 02:48:00,
2013-11-25 18:53:00,59.0,45.1,30.23,West,280,0.0,0.0,60,0.00,,,0.00,0,Wunderground v.1.15,2013-11-26 02:53:00,
2013-11-25 18:58:00,58.7,44.8,30.23,West,280,0.0,0.0,60,0.00,,,0.00,0,Wunderground v.1.15,2013-11-26 02:58:00,
2013-11-25 19:03:00,58.4,44.6,30.23,West,280,0.0,0.0,60,0.00,,,0.00,0,Wunderground v.1.15,2013-11-26 03:03:00,
2013-11-25 19:08:00,58.2,44.4,30.23,West,280,0.0,0.0,60,0.00,,,0.00,0,Wunderground v.1.15,2013-11-26 03:08:00,
2013-11-25 19:13:00,58.0,44.6,30.23,West,280,0.0,0.0,61,0.00,,,0.00,0,Wunderground v.1.15,2013-11-26 03:13:00,
2013-11-25 19:18:00,57.7,44.3,30.23,West,280,0.0,0.0,61,0.00,,,0.00,0,Wunderground v.1.15,2013-11-26 03:18:00,
2013-11-25 19:23:00,57.2,44.3,30.23,West,280,0.0,0.0,62,0.00,,,0.00,0,Wunderground v.1.15,2013-11-26 03:23:00,
2013-11-25 19:28:00,57.0,44.5,30.23,West,280,0.0,0.0,63,0.00,,,0.00,0,Wunderground v.1.15,2013-11-26 03:28:00,
2013-11-25 19:34:00,56.7,44.7,30.24,West,280,0.0,0.0,64,0.00,,,0.00,0,Wunderground v.1.15,2013-11-26 03:34:00,
2013-11-25 19:39:00,56.2,44.2,30.24,West,280,0.0,0.0,64,0.00,,,0.00,0,Wunderground v.1.15,2013-11-26 03:39:00,
2013-11-25 19:44:00,55.8,44.2,30.24,West,280,0.0,0.0,65,0.00,,,0.00,0,Wunderground v.1.15,2013-11-26 03:44:00,
2013-11-25 19:49:00,55.4,44.2,30.24,West,280,0.0,0.0,66,0.00,,,0.00,0,Wunderground v.1.15,2013-11-26 03:49:00,
2013-11-25 19:54:00,55.0,44.2,30.24,West,280,0.0,0.0,67,0.00,,,0.00,0,Wunderground v.1.15,2013-11-26 03:54:00,
2013-11-25 19:59:00,54.6,44.2,30.24,West,280,0.0,0.0,68,0.00,,,0.00,0,Wunderground v.1.15,2013-11-26 03:59:00,
2013-11-25 20:04:00,54.2,44.2,30.24,West,280,0.0,0.0,69,0.00,,,0.00,0,Wunderground v.1.15,2013-11-26 04:04:00,
2013-11-25 20:09:00,54.1,44.5,30.24,West,280,0.0,0.0,70,0.00,,,0.00,0,Wunderground v.1.15,2013-11-26 04:09:00,
2013-11-25 20:14:00,53.9,44.3,30.24,West,280,0.0,0.0,70,0.00,,,0.00,0,Wunderground v.1.15,2013-11-26 04:14:00,
2013-11-25 20:19:00,53.7,44.1,30.24,West,280,0.0,0.0,70,0.00,,,0.00,0,Wunderground v.1.15,2013-11-26 04:19:00,
2013-11-25 20:24:00,53.6,44.4,30.24,West,280,0.0,0.0,71,0.00,,,0.00,0,Wunderground v.1.15,2013-11-26 04:24:00,
2013-11-25 20:29:00,53.3,44.5,30.24,West,280,0.0,0.0,72,0.00,,,0.00,0,Wunderground v.1.15,2013-11-26 04:29:00,
2013-11-25 20:34:00,53.1,44.3,30.24,West,280,0.0,0.0,72,0.00,,,0.00,0,Wunderground v.1.15,2013-11-26 04:34:00,
2013-11-25 20:39:00,52.8,44.4,30.24,West,280,0.0,0.0,73,0.00,,,0.00,0,Wunderground v.1.15,2013-11-26 04:39:00,
2013-11-25 20:44:00,52.4,44.0,30.24,West,280,0.0,0.0,73,0.00,,,0.00,0,Wunderground v.1.15,2013-11-26 04:44:00,
2013-11-25 20:49:00,52.3,44.6,30.23,West,280,0.0,0.0,75,0.00,,,0.00,0,Wunderground v.1.15,2013-11-26 04:49:00,
2013-11-25 20:54:00,52.1,44.4,30.24,West,280,0.0,0.0,75,0.00,,,0.00,0,Wunderground v.1.15,2013-11-26 04:54:00,
2013-11-25 20:59:00,51.9,44.2,30.24,West,280,0.0,0.0,75,0.00,,,0.00,0,Wunderground v.1.15,2013-11-26 04:59:00,
2013-11-25 21:01:00,51.8,44.1,30.24,West,280,0.0,0.0,75,0.00,,,0.00,0,Wunderground v.1.15,2013-11-26 05:01:00,
2013-11-25 21:02:00,51.9,44.6,30.24,West,280,0.0,0.0,76,0.00,,,0.00,0,Wunderground v.1.15,2013-11-26 05:02:00,
2013-11-25 21:07:00,51.7,44.4,30.24,West,280,0.0,0.0,76,0.00,,,0.00,0,Wunderground v.1.15,2013-11-26 05:07:00,
2013-11-25 21:12:00,51.5,44.2,30.24,West,280,0.0,0.0,76,0.00,,,0.00,0,Wunderground v.1.15,2013-11-26 05:12:00,
2013-11-25 21:17:00,51.3,44.3,30.24,West,280,0.0,0.0,77,0.00,,,0.00,0,Wunderground v.1.15,2013-11-26 05:17:00,
2013-11-25 21:22:00,51.2,44.2,30.24,West,280,0.0,0.0,77,0.00,,,0.00,0,Wunderground v.1.15,2013-11-26 05:22:00,
2013-11-25 21:27:00,51.0,44.0,30.24,West,280,0.0,0.0,77,0.00,,,0.00,0,Wunderground v.1.15,2013-11-26 05:27:00,
2013-11-25 21:32:00,50.9,43.9,30.24,West,280,0.0,0.0,77,0.00,,,0.00,0,Wunderground v.1.15,2013-11-26 05:32:00,
2013-11-25 21:37:00,50.6,43.7,30.24,West,280,0.0,0.0,77,0.00,,,0.00,0,Wunderground v.1.15,2013-11-26 05:37:00,
2013-11-25 21:42:00,50.4,43.8,30.24,West,280,0.0,0.0,78,0.00,,,0.00,0,Wunderground v.1.15,2013-11-26 05:42:00,
2013-11-25 21:47:00,50.3,43.7,30.24,West,280,0.0,0.0,78,0.00,,,0.00,0,Wunderground v.1.15,2013-11-26 05:47:00,
2013-11-25 21:52:00,50.2,43.6,30.24,West,280,0.0,0.0,78,0.00,,,0.00,0,Wunderground v.1.15,2013-11-26 05:52:00,
2013-11-25 21:57:00,50.2,43.6,30.24,West,280,0.0,0.0,78,0.00,,,0.00,0,Wunderground v.1.15,2013-11-26 05:57:00,
2013-11-25 22:02:00,50.0,43.4,30.24,West,280,0.0,0.0,78,0.00,,,0.00,0,Wunderground v.1.15,2013-11-26 06:02:00,
2013-11-25 22:07:00,49.9,43.6,30.24,West,280,0.0,0.0,79,0.00,,,0.00,0,Wunderground v.1.15,2013-11-26 06:07:00,
2013-11-25 22:12:00,49.9,43.6,30.24,West,280,0.0,0.0,79,0.00,,,0.00,0,Wunderground v.1.15,2013-11-26 06:12:00,
2013-11-25 22:17:00,50.0,43.7,30.24,West,280,0.0,0.0,79,0.00,,,0.00,0,Wunderground v.1.15,2013-11-26 06:17:00,
2013-11-25 22:22:00,50.0,43.7,30.25,West,280,0.0,0.0,79,0.00,,,0.00,0,Wunderground v.1.15,2013-11-26 06:22:00,
2013-11-25 22:28:00,49.9,43.6,30.25,West,280,0.0,0.0,79,0.00,,,0.00,0,Wunderground v.1.15,2013-11-26 06:28:00,
2013-11-25 22:33:00,49.8,43.5,30.25,West,280,0.0,0.0,79,0.00,,,0.00,0,Wunderground v.1.15,2013-11-26 06:33:00,
2013-11-25 22:38:00,49.7,43.5,30.25,West,280,0.0,0.0,79,0.00,,,0.00,0,Wunderground v.1.15,2013-11-26 06:38:00,
2013-11-25 22:43:00,49.5,43.3,30.25,West,280,0.0,0.0,79,0.00,,,0.00,0,Wunderground v.1.15,2013-11-26 06:43:00,
2013-11-25 22:48:00,49.4,43.5,30.24,West,280,0.0,0.0,80,0.00,,,0.00,0,Wunderground v.1.15,2013-11-26 06:48:00,
2013-11-25 22:53:00,49.4,43.5,30.25,West,280,0.0,0.0,80,0.00,,,0.00,0,Wunderground v.1.15,2013-11-26 06:53:00,
2013-11-25 22:58:00,49.2,43.3,30.25,West,280,0.0,0.0,80,0.00,,,0.00,0,Wunderground v.1.15,2013-11-26 06:58:00,
2013-11-25 23:03:00,49.0,43.1,30.25,West,280,0.0,0.0,80,0.00,,,0.00,0,Wunderground v.1.15,2013-11-26 07:03:00,
2013-11-25 23:08:00,48.8,42.9,30.25,West,280,0.0,0.0,80,0.00,,,0.00,0,Wunderground v.1.15,2013-11-26 07:08:00,
2013-11-25 23:13:00,48.6,42.7,30.25,West,280,0.0,0.0,80,0.00,,,0.00,0,Wunderground v.1.15,2013-11-26 07:13:00,
2013-11-25 23:18:00,48.5,42.6,30.25,West,280,0.0,0.0,80,0.00,,,0.00,0,Wunderground v.1.15,2013-11-26 07:18:00,
2013-11-25 23:23:00,48.5,42.9,30.24,West,280,0.0,0.0,81,0.00,,,0.00,0,Wunderground v.1.15,2013-11-26 07:23:00,
2013-11-25 23:28:00,48.6,43.0,30.25,West,280,0.0,0.0,81,0.00,,,0.00,0,Wunderground v.1.15,2013-11-26 07:28:00,
2013-11-25 23:33:00,48.4,42.8,30.24,West,280,0.0,0.0,81,0.00,,,0.00,0,Wunderground v.1.15,2013-11-26 07:33:00,
2013-11-25 23:38:00,48.3,42.7,30.24,West,280,0.0,0.0,81,0.00,,,0.00,0,Wunderground v.1.15,2013-11-26 07:38:00,
2013-11-25 23:43:00,48.2,42.6,30.24,West,280,0.0,0.0,81,0.00,,,0.00,0,Wunderground v.1.15,2013-11-26 07:43:00,
2013-11-25 23:48:00,48.1,42.5,30.24,West,280,0.0,0.0,81,0.00,,,0.00,0,Wunderground v.1.15,2013-11-26 07:48:00,
2013-11-25 23:53:00,47.8,42.3,30.24,West,280,0.0,0.0,81,0.00,,,0.00,0,Wunderground v.1.15,2013-11-26 07:53:00,
2013-11-25 23:58:00,47.7,42.2,30.24,West,280,0.0,0.0,81,0.00,,,0.00,0,Wunderground v.1.15,2013-11-26 07:58:00,